Regional Weather Roundup
Issued by NWS

Home | Current Version | Previous Version | Text Only | Print | Product List | Glossary Off
Versions: 1 2 3 4 5 6 7 8 9 10 11 12 13 14 15 16 17 18 19 20 21 22 23 24 25 26 27 28 29 30 31 32 33 34 35 36 37 38 39 40 41 42 43 44 45 46 47 48 49 50

000
ASUS43 KLSX 270907
RWRMO

WEATHER SUMMARY FOR MISSOURI
NATIONAL WEATHER SERVICE SPRINGFIELD MO
400 AM CDT WED MAY 27 2015

NOTE: "FAIR" INDICATES FEW OR NO CLOUDS BELOW 12,000 FEET WITH NO
       SIGNIFICANT WEATHER AND/OR OBSTRUCTIONS TO VISIBILITY.
       CURRENT SKY AND/OR WEATHER CONDITIONS ARE NOT AVAILABLE FOR
       CHILLICOTHE AND FARMINGTON.

MOZ001>031-035>038-043-044-053-054-271000-
...NORTHERN AND WESTERN MISSOURI...

CITY           SKY/WX    TMP DP  RH WIND       PRES   REMARKS
KANSAS CTY INT MOCLDY    59  55  87 SW5       29.98R
KANSAS C DTWN  PTCLDY    61  55  81 S7        29.99R
LEE`S SUMMIT   CLEAR     62  58  86 W6        30.00R
ST JOSEPH      CLEAR     59  54  83 CALM      29.98R
CHILLICOTHE      N/A     60  58  92 CALM      29.97R
KIRKSVILLE     MOCLDY    62  60  93 SW5       29.95R

$$
MOZ066>068-077>081-088>096-101>105-271000-
...SOUTHWEST MISSOURI...

CITY           SKY/WX    TMP DP  RH WIND       PRES   REMARKS
SPRINGFIELD    TSTM      66  61  84 S13       30.01R
JOPLIN         CLOUDY    65  62  90 S7        30.01R

$$
MOZ032>034-039>042-045>050-055>058-069>072-271000-
...CENTRAL MISSOURI...

CITY           SKY/WX    TMP DP  RH WIND       PRES   REMARKS
COLUMBIA       MOCLDY    63  61  93 S8        29.98R
JEFFERSON CITY MOCLDY    67  61  81 SW6       29.99R
ROLLA          CLOUDY    65  63  93 SW13      30.03R
SEDALIA        PTCLDY    67  62  84 SW9       29.99R
WHITEMAN AFB   PTCLDY    65  62  90 W7        29.97R
WARRENSBURG    CLEAR     63  61  94 W7        29.98R

$$
MOZ051-052-059>065-271000-
...EAST CENTRAL MISSOURI...

CITY           SKY/WX    TMP DP  RH WIND       PRES   REMARKS
ST LOUIS INTL  MOCLDY    71  61  70 SW13      29.99R
SPIRIT OF STL  PTCLDY   N/A N/A N/A SW3       29.98R
ST CHARLES     CLEAR     67  62  84 SW8       29.97R

$$
MOZ072>076-082>087-097>100-106>115-271000-
...SOUTH CENTRAL AND SOUTHEAST MISSOURI...

CITY           SKY/WX    TMP DP  RH WIND       PRES   REMARKS
CAPE GIRARDEAU CLEAR     65  63  93 S3        30.03F
FARMINGTON     MOCLDY    64  63  94 SW7       30.06S
POPLAR BLUFF   CLEAR     65  62  90 CALM      30.04R
WEST PLAINS    CLOUDY    67  63  87 S7        30.02F

$$



USA.gov is the U.S. government's official web portal to all federal, state and local government web resources and services.